Starlink 1267

operational
NORAD ID: 45384 Int'l Des: 2020-019 Owner: SPXS Country: US Constellation: starlink
LEOCIRCULARSTARLINK_TYPE

Starlink 1267について

説明を読み込み中...

リアルタイム位置

3D地球を読み込み中...

次回通過

高度履歴

Altitude vs Time

uPlot chart will show altitude changes over time

軌道要素

1 45384U 20019AA 25351.66670139 .01643742 00000-0 79182-1 0 9995
2 45384 53.0534 155.2928 0002172 75.5957 46.6717 15.15273464 5811
Epoch: Dec 17, 2025 • Age: 7 hours

現在のステータス

高度 529.7 km
速度 7.60 km/s
衛星直下点 -36.04°S, 46.6°E
打ち上げ日 Mar 18, 2020
運用期間 5.7 years
タイプ internet

技術仕様

分類 Payload
質量 260.00 kg
乾燥質量 248.00 kg
総質量 260.00 kg
長さ 0.20 m
直径 2.80 m
スパン 9.00 m
形状 Box + pan
製造者 SPXS
バスタイプ Starlink
フェーズステータス In Orbit
所有者/国 SPXS/US

大規模コンステレーション

Loading constellations...